FENGYUN 1C DEB, 38727

Orbit data source: Space-Track

FENGYUN 1C DEB, 38727 is space debris in SSO originally from a launch on Mon, 10 May 1999 UTC launched from the Taiyaun Space Center, China (TSC). Fengyun 1C debris stems from the Chinese weather satellite Fengyun-1C, which was intentionally destroyed by a Chinese anti-satellite missile in 2007. This event dramatically increased the amount of space debris, with thousands of trackable fragments posing hazards to satellites and human spaceflight. The Fengyun 1C debris cloud has become a focal point in discussions about space sustainability and the need for international regulations to prevent the creation of new debris.

Loading next visibility...
Identifier
38727, 1999-025ETU
Orbit
SSO
Country
Flag of CNCN / PRC
Related business
Manufacturer
Unknown
Mission
Spacecraft
Bus & Motor
Unknown
Mass
Unknown
Launch date (UTC)
1999-05-10 (27 years ago)
Launch vehicle
Unknown
Launch site
Taiyaun Space Center, China (TSC)
Object type
Payload
Rocket body
Debris
Shape & HBR
Unknown shape, 0.1 m
Radar Cross Section
Small (<0.1 m²)

Expand to show TLE details & history
Last TLE update: 2 weeks ago

TLE from 2 weeks ago
0 FENGYUN 1C DEB
1 38727U 99025ETU 26151.94147905  .00002316  00000-0  13920-2 0  9995
2 38727  98.6091 145.5965 0105107 101.5766 289.0454 14.05021186742224
Epoch: 2026-05-31T22:35Z
TLE epoch observation values (Epoch: 2026-05-31T22:35:43.789Z)
Latitude
29.1625°
Longitude
-87.59258°
Altitude
855.896 km
Speed
7.44 km/s
True Right ascension
09h 23m 06s
True Declination
29° 01' 06"
Sunlit
Object was in daylight at epoch
Visualization orbit readout
Latitude
Unknown
Longitude
Unknown
Altitude
Unknown
Speed
Unknown
Apparent Right ascension
Unknown
Apparent Declination
Unknown
Sunlit
N/A
Visualization observer readout
Local Sidereal Time
21:35:55
Azimuth
Unknown
Elevation
Unknown
Doppler factor
Unknown
Orbital elements
Apogee altitude
949.854 km
Perigee altitude
797.412 km
Semi-major axis
7,251.77 km
Eccentricity
0.01051
Inclination
98.6091°
RAAN
145.5965°
Arg. of periapsis
101.5766°
True anomaly
287.90207°
Mean anomaly
289.0454°
Eccentric anomaly
288.47422°
Mean motion
3.51461 °/min
Orbital period
102.43 mins
BSTAR
0.001392
Loading maneuver chart data...
Computing Atmospheric mass density...

Documentation

Showing up to 5 results
|